Temperature
23 23 22 22 22 21 21 20 20 19 19 18 18 17 17 17 16 16 15 15 15 15 15 14 14 14 14 14 14 14 14 15 15 15 16 16 16 16 16 16 16 16 16
23 22 22 22 21 21 21 20 20 19 19 18 18 17 17 17 16 16 16 15 15 15 14 14 14 14 14 14 14 14 14 14 15 15 15 15 16 16 16 16 16 16 16
22 22 22 21 21 21 20 20 20 19 19 18 18 17 17 17 16 16 16 15 15 15 15 14 14 14 14 14 14 14 14 14 14 15 15 15 15 16 16 16 16 16 16
21 21 21 21 21 20 20 20 20 19 19 18 18 18 17 17 16 16 16 16 15 15 15 15 14 14 14 14 14 14 14 14 14 14 15 15 15 15 15 16 16 16 16
21 20 20 20 20 20 20 20 19 19 19 18 18 17 17 17 16 16 16 16 16 15 15 15 15 14 14 14 14 14 14 14 14 14 14 15 15 15 15 15 15 16 16
20 20 20 20 20 19 19 19 19 19 18 18 17 17 17 16 16 16 16 16 16 15 15 15 15 14 14 14 14 14 14 14 14 14 14 14 14 15 15 15 15 15 15
20 19 19 19 19 19 18 18 18 18 18 17 17 17 17 16 16 16 16 16 16 15 15 15 15 14 14 14 14 14 14 14 14 14 14 14 14 14 15 15 15 15 15
20 19 19 18 18 18 18 18 17 17 17 17 17 17 16 16 16 16 16 16 15 15 15 15 15 15 14 14 14 14 14 14 14 14 14 14 14 14 14 14 15 15 15
19 19 18 18 18 18 18 17 17 17 17 17 17 16 16 16 16 16 16 16 15 15 15 15 15 15 15 14 14 14 14 14 14 14 14 14 14 14 14 14 14 14 14
19 18 18 18 17 17 17 17 17 17 17 17 17 16 16 16 16 16 16 15 15 15 15 15 15 15 15 15 14 14 14 14 14 14 14 14 14 14 14 14 14 14 14
19 18 17 17 17 17 17 17 17 17 17 17 16 16 16 16 16 16 15 15 15 15 15 15 15 15 15 15 15 14 14 14 14 14 14 14 14 14 14 14 14 14 14
18 18 17 17 17 16 16 16 16 16 16 16 16 16 16 15 15 15 15 15 15 15 15 15 15 15 15 15 15 14 14 14 14 14 14 14 14 14 14 14 14 14 14
18 17 17 17 16 16 16 16 16 16 15 15 15 15 15 15 15 15 15 15 15 15 15 15 15 15 15 15 15 14 14 14 14 14 14 14 14 14 14 14 14 14 14
18 17 17 17 16 16 16 16 16 15 15 15 15 15 15 15 15 15 14 14 14 15 15 15 15 15 15 14 14 14 14 14 14 14 14 14 14 14 14 14 14 14 14
18 17 17 16 16 16 16 16 15 15 15 15 15 15 15 14 14 14 14 14 14 14 14 14 14 14 14 14 14 14 14 14 14 14 14 14 14 14 14 14 14 14 13
17 17 16 16 16 16 16 15 15 15 15 15 14 14 14 14 14 14 14 14 14 14 13 13 13 14 14 14 14 14 14 14 14 14 14 14 14 14 14 14 14 14 13
17 16 16 16 16 16 15 15 15 15 15 14 14 14 14 14 13 13 13 13 13 13 13 13 13 13 13 13 13 13 13 13 13 13 13 13 13 14 14 13 13 13 13
16 16 16 15 15 15 15 15 15 15 14 14 14 13 13 13 13 13 13 13 13 13 13 13 13 13 13 13 13 13 13 13 13 13 13 13 13 13 13 13 13 13 13
16 15 15 15 15 15 14 14 14 14 14 14 13 13 13 13 13 13 13 12 12 12 12 12 12 13 13 13 13 13 13 13 12 12 13 13 13 13 13 13 13 13 13
15 15 15 14 14 14 14 14 14 14 13 13 13 12 12 12 12 12 12 12 12 12 12 12 12 12 12 13 13 12 12 12 12 12 12 12 12 12 13 13 12 12 12
15 14 14 14 14 13 13 13 13 13 13 12 12 12 12 12 12 12 12 12 12 12 12 12 12 12 12 12 12 12 12 12 12 12 12 12 12 12 12 12 12 12 12
14 14 13 13 13 13 13 12 12 12 12 12 12 12 11 11 12 11 11 11 11 11 11 11 11 11 11 11 12 11 11 11 11 11 11 11 11 12 12 12 12 12 12
14 13 13 13 12 12 12 12 12 12 11 11 11 11 11 11 11 11 11 11 11 10 10 10 10 10 10 11 11 11 11 11 11 11 11 11 11 11 11 12 12 12 12
13 13 13 12 12 12 11 11 11 11 11 11 10 10 10 11 11 10 10 10 10 10 10 10 10 10 10 10 10 10 10 10 10 10 10 10 11 11 11 11 11 12 12
13 12 12 12 12 11 11 11 11 11 10 10 10 10 10 10 10 10 10 10 9 9 9 9 9 9 9 9 9 9 9 9 9 9 9 10 10 10 10 11 11 11 11
12 12 12 12 11 11 11 11 10 10 10 10 9 9 9 9 9 9 9 9 9 9 9 9 9 9 9 9 9 9 9 9 9 9 9 9 9 9 10 10 10 11 11
Wind_Speed
4 5 6 6 5 5 6 6 6 6 5 2 1 1 1 1 2 1 3 3 3 4 3 3 3 2 3 3 5 4 5 4 3 3 3 3 2 0 1 0 1 1 1
5 6 6 6 5 4 4 5 5 6 6 3 2 2 2 0 1 0 2 2 3 3 4 3 3 2 1 3 4 3 3 4 4 2 2 2 3 3 0 0 0 0 1
6 6 5 5 4 4 3 3 3 6 6 5 2 1 1 1 0 1 1 1 0 1 2 3 4 3 2 2 3 3 3 3 4 2 1 1 1 2 2 1 0 1 1
7 6 5 5 4 3 2 3 3 4 5 5 2 1 1 0 0 0 1 1 1 1 1 3 3 3 2 3 3 3 2 2 3 3 2 1 0 0 1 2 1 1 1
7 6 5 5 5 5 4 3 4 4 4 4 3 1 1 1 1 1 0 1 1 1 1 2 2 2 2 2 3 3 2 2 2 3 2 3 2 1 1 1 1 1 0
7 7 6 6 6 6 5 5 5 5 3 2 2 2 1 2 2 2 1 2 1 1 1 1 1 1 2 2 3 3 2 1 2 2 2 2 1 2 1 1 1 0 1
7 7 7 6 6 6 5 4 4 3 2 1 1 2 1 2 2 2 1 2 2 0 0 1 1 1 2 2 2 3 2 2 1 1 2 2 2 1 1 1 1 1 1
8 8 7 6 5 5 4 4 3 3 1 1 1 1 1 2 1 2 2 2 2 1 1 1 2 1 1 2 2 2 2 2 2 2 2 1 2 2 1 0 0 1 1
8 7 6 6 5 5 4 3 3 3 2 1 1 1 1 1 1 2 2 2 3 2 2 3 3 2 3 2 1 2 2 3 2 2 2 1 2 1 1 1 0 1 1
7 7 6 6 5 4 3 3 3 2 2 2 2 2 1 1 2 2 3 3 4 3 4 5 4 3 3 3 2 2 2 3 2 2 2 2 2 2 1 1 1 0 1
6 6 5 5 4 4 4 3 2 2 2 2 2 2 2 2 2 2 2 3 4 4 5 5 5 4 3 2 2 3 3 3 3 3 2 2 2 2 1 1 1 1 1
6 6 5 5 4 4 3 3 3 2 2 2 2 3 3 3 3 3 3 4 4 4 5 5 5 4 3 3 3 4 4 4 4 3 2 3 2 3 2 2 2 2 2
6 6 5 4 3 3 3 3 3 3 2 2 2 3 3 3 3 4 4 5 6 5 5 5 4 4 4 4 3 4 4 4 4 3 3 3 2 3 3 3 3 2 2
6 6 4 4 3 3 2 2 2 2 2 2 2 2 3 3 3 4 5 5 6 7 6 6 5 4 4 4 4 4 4 4 4 4 3 3 3 3 3 3 3 3 3
5 5 4 3 3 2 2 3 2 2 2 2 2 3 4 3 3 4 4 5 6 8 7 6 6 5 5 4 4 4 5 5 5 5 4 4 4 4 3 2 2 1 2
5 5 4 4 4 4 3 4 4 3 2 2 2 2 4 4 3 4 4 5 6 7 7 7 7 6 6 5 6 5 6 7 6 6 5 5 6 6 6 6 5 4 3
5 4 4 4 4 5 4 4 4 4 3 3 3 2 3 4 4 5 5 5 6 6 6 7 7 6 6 7 7 8 6 7 7 7 6 6 5 6 5 7 7 6 7
4 3 4 4 4 5 5 5 5 5 4 4 4 4 3 4 4 5 6 6 6 6 6 7 7 7 7 8 8 8 6 7 7 7 7 6 5 5 4 5 5 5 6
4 3 3 4 5 6 7 7 6 6 6 5 5 5 5 5 5 6 6 6 6 7 6 7 7 7 8 8 8 6 5 7 7 7 7 6 5 6 6 4 5 5 5
4 3 3 4 5 5 6 6 6 6 7 7 7 6 6 6 6 6 6 6 6 7 7 7 7 8 8 8 8 6 4 6 6 5 5 6 6 6 6 5 5 6 5
3 3 3 3 4 5 5 5 6 7 7 7 7 7 7 7 7 6 5 6 6 6 7 8 7 7 8 7 7 7 4 5 6 5 5 4 6 7 7 7 5 7 5
3 2 2 2 3 4 4 5 5 6 6 6 7 7 7 8 7 6 6 6 6 7 7 7 7 6 6 6 7 9 8 7 6 6 5 4 6 7 8 7 7 8 6
2 2 1 1 2 3 4 5 6 6 7 7 7 7 8 7 6 6 5 6 6 5 6 6 6 6 5 5 8 9 9 10 7 6 7 7 8 7 7 8 9 8 5
2 1 0 1 2 3 3 4 5 6 7 7 7 7 7 7 7 6 5 5 5 6 6 6 7 7 6 5 4 4 5 7 8 7 8 9 9 7 7 8 7 7 6
2 1 1 2 3 3 3 4 5 6 7 7 7 7 6 7 7 6 6 7 6 6 8 7 7 8 8 9 10 8 7 6 7 7 6 5 4 5 5 6 6 6 7
1 1 1 2 3 4 4 4 4 5 7 7 6 5 6 6 6 7 8 9 10 13 14 13 13 11 12 15 15 14 13 13 12 8 6 8 7 8 8 7 7 7 8
Wind_Direction
141 137 133 135 133 134 135 133 149 143 124 111 94 80 69 13 57 57 60 13 357 5 348 347 334 345 350 347 337 343 336 327 327 338 331 314 313 273 183 278 341 27 87
110 115 131 139 146 145 142 141 147 136 130 139 144 153 111 12 130 141 89 6 3 15 353 344 329 334 352 342 327 347 342 326 342 345 348 338 345 342 2 124 246 79 70
90 91 97 111 121 131 141 131 133 139 140 145 125 72 78 291 343 161 134 219 280 56 343 328 327 340 353 327 335 355 343 334 333 336 41 19 336 322 327 357 84 100 88
82 86 81 86 85 81 95 127 134 136 132 134 129 168 199 228 243 189 181 227 121 118 356 317 316 334 341 343 335 355 342 346 324 327 337 281 171 158 321 327 1 122 126
76 87 81 85 76 64 53 47 85 88 103 115 134 231 309 317 352 357 21 299 184 209 108 294 308 327 335 334 331 342 346 341 326 321 329 335 339 272 217 282 310 20 131
70 74 74 72 71 68 58 50 65 67 86 116 154 186 249 305 325 319 309 293 246 203 177 296 293 319 325 326 320 312 318 310 317 325 328 325 323 319 329 279 270 212 228
76 73 70 67 69 73 70 70 75 76 100 149 215 204 218 263 268 279 282 290 293 284 255 296 274 297 302 297 306 303 304 285 282 287 299 311 311 318 307 290 288 273 240
73 72 70 68 66 70 72 70 73 73 81 228 253 222 230 261 272 304 306 299 303 297 273 266 252 232 258 293 298 303 308 308 294 280 264 279 295 308 309 238 282 322 305
73 71 65 64 64 61 58 68 66 60 42 322 304 283 278 310 324 311 307 310 304 303 311 287 271 243 222 233 260 271 287 301 309 301 301 280 264 269 293 311 182 168 246
84 80 71 64 61 63 59 61 73 57 38 4 331 337 338 334 322 302 312 318 312 316 302 290 277 258 238 214 216 258 275 288 275 245 268 288 292 295 265 275 284 217 196
86 81 75 68 62 61 59 53 48 49 38 3 343 349 349 337 324 305 304 290 285 287 286 282 284 280 270 244 217 234 249 269 276 271 244 241 242 278 278 266 254 247 198
88 85 77 71 63 55 51 51 36 29 38 5 358 356 3 344 328 315 311 305 296 289 286 288 292 294 286 271 242 242 248 249 254 263 269 265 243 233 236 247 254 233 217
86 81 75 66 54 46 39 39 33 17 29 22 5 6 350 336 326 327 324 316 315 312 303 298 299 301 298 291 276 255 247 248 248 244 245 256 255 250 232 222 236 229 218
83 78 71 64 51 37 28 28 21 12 16 27 2 346 328 327 321 321 321 324 327 320 312 312 309 303 303 302 296 297 279 263 259 246 233 237 238 249 257 240 237 225 211
82 75 65 54 45 42 25 22 12 6 2 13 350 329 323 328 325 322 318 323 322 316 310 316 317 313 307 303 314 313 302 290 275 258 235 216 209 215 228 235 243 241 213
78 67 52 38 23 24 21 18 2 356 347 356 345 329 325 328 320 315 313 315 310 307 313 314 309 306 307 312 307 301 303 296 285 273 252 227 216 219 219 214 206 199 210
79 60 46 36 18 13 15 11 359 347 346 354 346 330 324 321 316 313 308 300 296 294 300 302 298 292 285 286 288 281 283 285 284 280 271 261 232 214 217 219 219 222 223
87 63 43 32 17 14 13 8 4 355 357 2 346 332 324 317 313 306 297 290 292 294 288 287 289 287 283 277 275 277 277 278 276 276 274 262 242 233 221 220 219 217 223
93 75 41 31 21 19 10 1 2 4 7 4 347 338 331 316 302 294 289 286 289 289 287 284 283 284 282 272 269 267 278 277 272 270 275 272 255 241 233 230 226 217 215
86 79 51 32 22 12 4 358 356 3 2 354 341 333 322 308 297 290 287 286 282 279 284 284 281 283 283 271 269 268 273 283 283 275 265 263 257 252 234 234 230 225 219
89 79 64 42 20 4 358 357 356 352 345 338 329 319 312 305 295 288 290 292 289 287 283 284 281 279 283 278 270 263 265 280 292 286 274 260 253 254 250 239 233 232 218
105 88 65 41 13 360 353 351 347 337 331 325 319 312 308 306 308 297 290 293 296 295 290 287 290 285 280 279 276 270 265 279 286 287 284 269 258 256 259 252 236 228 219
124 109 76 18 350 354 356 340 333 329 325 323 319 313 312 311 309 307 304 300 295 291 293 295 295 297 296 286 281 273 278 281 283 286 287 274 266 256 253 247 235 221 216
142 136 121 321 328 344 342 331 328 326 324 322 320 317 319 321 323 320 308 302 299 296 293 294 293 292 290 286 282 282 289 287 285 284 284 276 258 245 242 243 236 224 210
151 166 237 295 308 319 316 321 327 326 320 318 320 321 319 317 316 312 308 304 292 286 289 290 292 295 293 287 282 281 278 274 270 283 284 269 254 244 246 240 225 219 213
187 214 243 274 295 307 310 318 322 318 317 318 321 319 314 311 312 311 310 303 294 292 287 281 281 286 284 290 287 281 279 275 272 274 269 257 245 239 235 236 232 225 216
Height
1514 1516 1518 1520 1522 1524 1524 1525 1526 1527 1526 1526 1526 1526 1526 1526 1525 1525 1524 1523 1522 1521 1520 1519 1518 1517 1516 1514 1513 1512 1511 1511 1511 1510 1510 1510 1510 1510 1511 1511 1512 1513 1514
1514 1516 1518 1520 1522 1523 1524 1525 1526 1526 1526 1526 1526 1526 1526 1525 1525 1524 1523 1522 1521 1520 1520 1519 1518 1517 1516 1514 1513 1512 1511 1511 1511 1510 1510 1510 1511 1510 1510 1511 1511 1512 1513
1515 1517 1518 1520 1522 1523 1524 1525 1525 1525 1525 1525 1525 1525 1525 1525 1525 1524 1523 1522 1521 1520 1519 1518 1518 1517 1516 1514 1514 1513 1511 1511 1511 1511 1511 1511 1510 1510 1510 1510 1511 1511 1512
1516 1517 1519 1520 1521 1522 1523 1524 1525 1525 1525 1525 1524 1524 1525 1525 1524 1524 1523 1522 1521 1520 1519 1518 1517 1516 1515 1514 1514 1513 1512 1511 1510 1510 1511 1511 1511 1511 1510 1511 1511 1511 1512
1517 1518 1519 1520 1521 1521 1522 1523 1524 1524 1524 1524 1524 1524 1524 1524 1524 1524 1523 1522 1521 1520 1519 1518 1517 1516 1515 1514 1513 1512 1512 1511 1510 1510 1510 1510 1510 1510 1510 1510 1511 1511 1511
1518 1519 1520 1520 1521 1521 1521 1522 1523 1523 1523 1523 1523 1523 1523 1523 1523 1523 1522 1522 1521 1520 1519 1518 1516 1515 1515 1514 1513 1512 1511 1511 1510 1510 1510 1509 1509 1509 1509 1509 1509 1510 1510
1520 1520 1520 1521 1521 1522 1522 1522 1522 1522 1522 1523 1523 1523 1523 1523 1522 1522 1522 1521 1521 1519 1518 1517 1516 1515 1514 1513 1512 1512 1511 1511 1510 1509 1509 1508 1509 1509 1509 1509 1509 1509 1509
1521 1521 1522 1522 1522 1522 1522 1522 1522 1522 1522 1522 1522 1523 1522 1522 1522 1521 1521 1520 1520 1519 1518 1516 1515 1514 1513 1513 1512 1511 1510 1510 1509 1508 1508 1508 1508 1508 1508 1508 1508 1508 1508
1522 1523 1523 1523 1523 1522 1522 1522 1522 1522 1521 1521 1521 1521 1521 1521 1521 1520 1520 1519 1518 1518 1517 1515 1514 1514 1513 1512 1511 1510 1509 1509 1508 1507 1507 1506 1506 1506 1506 1507 1507 1508 1507
1524 1524 1524 1524 1523 1523 1523 1522 1522 1521 1521 1521 1521 1520 1520 1520 1519 1519 1518 1518 1517 1516 1515 1514 1513 1512 1512 1511 1510 1509 1508 1508 1507 1506 1505 1505 1505 1505 1505 1505 1505 1506 1506
1524 1524 1524 1524 1524 1523 1523 1522 1522 1521 1520 1520 1520 1519 1519 1519 1518 1518 1517 1516 1515 1514 1513 1513 1512 1511 1510 1510 1508 1508 1507 1506 1506 1505 1504 1503 1503 1503 1503 1503 1503 1504 1504
1524 1524 1524 1524 1524 1523 1522 1522 1521 1520 1520 1519 1519 1519 1518 1517 1517 1516 1515 1515 1514 1513 1512 1511 1510 1509 1508 1508 1507 1506 1505 1504 1504 1503 1503 1502 1501 1501 1501 1501 1501 1501 1501
1524 1524 1524 1524 1524 1523 1523 1522 1521 1520 1520 1519 1518 1518 1517 1516 1515 1514 1514 1513 1512 1511 1510 1509 1508 1507 1506 1505 1504 1503 1502 1502 1501 1501 1500 1499 1499 1499 1499 1498 1498 1498 1499
1524 1524 1524 1524 1524 1523 1522 1522 1521 1520 1519 1518 1517 1517 1516 1515 1514 1513 1512 1511 1509 1508 1507 1507 1505 1504 1503 1502 1501 1500 1499 1499 1498 1498 1497 1496 1496 1496 1496 1495 1495 1496 1496
1524 1524 1524 1524 1523 1523 1522 1521 1520 1519 1518 1517 1516 1515 1515 1514 1513 1511 1510 1508 1507 1506 1505 1504 1502 1501 1500 1499 1498 1497 1496 1495 1494 1494 1493 1493 1493 1492 1492 1492 1492 1492 1492
1524 1524 1524 1523 1523 1522 1521 1520 1519 1518 1517 1516 1515 1514 1513 1512 1510 1509 1507 1506 1504 1503 1501 1500 1499 1498 1497 1496 1495 1493 1492 1491 1490 1490 1489 1489 1488 1488 1488 1488 1488 1489 1489
1523 1523 1523 1523 1522 1521 1520 1519 1518 1517 1516 1515 1513 1512 1511 1509 1508 1506 1505 1503 1501 1500 1498 1496 1495 1494 1493 1492 1490 1489 1488 1487 1486 1485 1485 1485 1484 1484 1484 1484 1484 1484 1484
1521 1522 1522 1522 1521 1520 1519 1518 1517 1515 1514 1513 1511 1510 1508 1507 1505 1503 1502 1500 1499 1497 1495 1493 1491 1490 1489 1487 1486 1485 1483 1482 1481 1480 1480 1480 1479 1480 1480 1479 1479 1479 1479
1520 1520 1521 1520 1520 1519 1518 1516 1515 1514 1512 1511 1509 1507 1506 1504 1502 1500 1498 1497 1495 1493 1491 1489 1488 1486 1484 1483 1482 1480 1478 1477 1476 1475 1475 1475 1474 1475 1475 1475 1474 1474 1474
1518 1518 1519 1518 1518 1517 1516 1515 1513 1512 1510 1508 1506 1505 1503 1501 1499 1497 1495 1493 1491 1489 1487 1485 1484 1482 1480 1479 1477 1476 1474 1472 1471 1470 1469 1469 1469 1469 1470 1470 1469 1469 1469
1516 1516 1516 1516 1516 1515 1514 1512 1511 1510 1508 1506 1504 1502 1500 1498 1496 1494 1492 1490 1487 1485 1483 1481 1479 1477 1475 1474 1472 1471 1469 1468 1466 1465 1464 1463 1463 1463 1463 1464 1464 1464 1465
1513 1514 1514 1514 1513 1512 1511 1510 1508 1507 1505 1503 1500 1498 1496 1494 1492 1490 1488 1486 1483 1481 1479 1476 1474 1472 1471 1469 1467 1466 1464 1463 1461 1459 1458 1457 1457 1456 1456 1456 1457 1458 1459
1511 1511 1512 1511 1511 1510 1509 1507 1506 1504 1502 1499 1497 1495 1493 1491 1489 1486 1484 1481 1479 1477 1474 1472 1469 1467 1465 1463 1462 1460 1459 1457 1455 1453 1452 1451 1451 1450 1450 1450 1450 1452 1453
1509 1509 1509 1509 1508 1508 1506 1504 1503 1501 1499 1496 1494 1492 1489 1487 1484 1482 1480 1478 1475 1473 1470 1468 1465 1462 1460 1458 1456 1454 1453 1451 1449 1447 1445 1444 1444 1443 1443 1443 1443 1444 1446
1506 1506 1506 1506 1505 1504 1503 1501 1499 1497 1495 1493 1491 1488 1486 1483 1480 1478 1476 1473 1471 1469 1466 1463 1461 1458 1454 1452 1451 1449 1447 1445 1443 1441 1438 1437 1436 1436 1435 1436 1436 1437 1439
1503 1503 1503 1503 1502 1501 1499 1498 1496 1494 1491 1489 1487 1484 1481 1479 1476 1473 1470 1468 1466 1464 1461 1459 1456 1452 1450 1447 1444 1442 1440 1438 1437 1435 1432 1430 1429 1429 1429 1429 1429 1430 1431